This is the latest recevied weather packets stored in our database for station/object N4DBJ. If no packets are shown the sender has not sent any weather packets the latest 10 day(s).
| Time | Temp. | Humidity | Pressure | Rain* | Wind** | Luminosity | Snow |
|---|---|---|---|---|---|---|---|
| 1777901536 | 17.22° C | 68% | 1011.1 hPa | 0 mm | - | 267 W/m² | - |
| 1777901233 | 17.22° C | 68% | 1011.5 hPa | 0 mm | - | 88 W/m² | - |
| 1777900930 | 17.22° C | 68% | 1011.5 hPa | 0 mm | - | 88 W/m² | - |
| 1777900628 | 16.11° C | 70% | 1011.5 hPa | 0 mm | - | 168 W/m² | - |
| 1777900324 | 15.56° C | 72% | 1011.4 hPa | 0 mm | - | 75 W/m² | - |
| 1777900022 | 15.56° C | 73% | 1011.5 hPa | 0 mm | - | 70 W/m² | - |
| 1777899717 | 14.44° C | 73% | 1011.5 hPa | 0 mm | - | 67 W/m² | - |
| 1777899415 | 14.44° C | 76% | 1011.3 hPa | 0 mm | - | 76 W/m² | - |
| 1777899113 | 13.89° C | 78% | 1011.4 hPa | 0 mm | - | 60 W/m² | - |
| 1777898810 | 13.33° C | 78% | 1011.3 hPa | 0 mm | - | 58 W/m² | - |
| 1777898508 | 13.33° C | 78% | 1011.5 hPa | 0 mm | - | 58 W/m² | - |
| 1777898205 | 12.78° C | 78% | 1011.3 hPa | 0 mm | - | 58 W/m² | - |
| 1777897902 | 12.78° C | 80% | 1011.5 hPa | 0 mm | - | 61 W/m² | - |
| 1777897598 | 12.78° C | 80% | 1011.5 hPa | 0 mm | - | 65 W/m² | - |
| 1777897293 | 12.22° C | 81% | 1011.5 hPa | 0 mm | - | 65 W/m² | - |
| 1777896990 | 11.67° C | 83% | 1011.5 hPa | 0 mm | - | 61 W/m² | - |
| 1777896687 | 11.67° C | 83% | 1011.4 hPa | 0 mm | - | 58 W/m² | - |
| 1777896384 | 11.67° C | 84% | 1011.4 hPa | 0 mm | - | 53 W/m² | - |
| 1777896082 | 11.11° C | 86% | 1011.5 hPa | 0 mm | - | 49 W/m² | - |
| 1777895780 | 10.56° C | 89% | 1011.3 hPa | 0 mm | - | 46 W/m² | - |
| 1777895477 | 10.56° C | 89% | 1011.4 hPa | 0 mm | - | 42 W/m² | - |
| 1777895174 | 10° C | 90% | 1011.4 hPa | 0 mm | - | 39 W/m² | - |
| 1777894871 | 10° C | 90% | 1011.4 hPa | 0 mm | - | 35 W/m² | - |
| 1777894568 | 10° C | 91% | 1011.2 hPa | 0 mm | - | 31 W/m² | - |
| 1777894266 | 10° C | 90% | 1011.2 hPa | 0 mm | - | 25 W/m² | - |
* Rain latest hour (hover to see other rain measurements)
** Current wind speed in m/s (hover to see current wind gust speed)